Vidsel, Sweden

5:14 PM CET on February 25, 2018 (GMT +0100)
Vidsel Air Base

Weather History for ESPE - May, 2013

Change the Weather History Date:

Saturday, May 25, 2013

  Actual Average Record
Temperature  
Mean Temperature 56 °F -  
Max Temperature 64 °F - - ()
Min Temperature 48 °F - - ()
Degree Days  
Heating Degree Days 9    
Growing Degree Days 6 (Base 50)    
Moisture  
Dew Point 40 °F    
Average Humidity 53    
Maximum Humidity 82    
Minimum Humidity 37    
Precipitation  
Precipitation 0.00 in - - ()
Sea Level Pressure  
Sea Level Pressure 29.93 in    
Wind  
Wind Speed 6 mph ()    
Max Wind Speed 10 mph    
Max Gust Speed 21 mph    
Visibility 6.2 miles    
Events      
T = Trace of Precipitation, MM = Missing Value Source: Averaged Metar Reports

Daily Weather History Graph

Daily Weather History Graph

Search for Another Location

Airport or City:

Trip Planner

Search our weather history database for the weather conditions in past years. The results will help you decide how hot, cold, wet, or windy it might be!

Date:

Astronomy

May. 25, 2013 Rise Set
Actual Time 2:23 AM CEST 10:52 PM CEST
Civil Twilight Sun does not rise Sun does not rise
Nautical Twilight Sun does not rise Sun does not rise
Astronomical Twilight Sun does not rise Sun does not rise
Moon 11:02 PM CEST 3:01 AM CEST
Length of Visible Light 24h 00m
Length of Day
20h 29m
Full, 100% of the Moon is Illuminated
May 25
Full
May 31
Last Quarter
Jun 8
New
Jun 16
First Quarter
Jun 23
Full

Hourly Weather History & Observations

Time (CEST) Temp. Dew Point Humidity Pressure Visibility Wind Dir Wind Speed Gust Speed Precip Events Conditions
12:20 AM 51.8 °F 42.8 °F 71% 29.86 in 6.2 mi Variable 2.3 mph - N/A   Unknown
12:50 AM 50.0 °F 42.8 °F 76% 29.86 in 6.2 mi West 3.5 mph - N/A   Unknown
1:20 AM 51.8 °F 42.8 °F 71% 29.89 in 6.2 mi WNW 5.8 mph - N/A   Unknown
1:50 AM 50.0 °F 42.8 °F 76% 29.89 in 6.2 mi WNW 4.6 mph - N/A   Unknown
2:20 AM 48.2 °F 42.8 °F 82% 29.89 in 6.2 mi Variable 2.3 mph - N/A   Unknown
2:50 AM 50.0 °F 41.0 °F 71% 29.89 in 6.2 mi WNW 5.8 mph - N/A   Unknown
3:20 AM 48.2 °F 41.0 °F 76% 29.89 in 6.2 mi WNW 5.8 mph - N/A   Unknown
3:50 AM 48.2 °F 41.0 °F 76% 29.89 in 6.2 mi WNW 5.8 mph - N/A   Unknown
4:20 AM 48.2 °F 41.0 °F 76% 29.89 in 6.2 mi West 5.8 mph - N/A   Unknown
4:50 AM 48.2 °F 41.0 °F 76% 29.89 in 6.2 mi WNW 5.8 mph - N/A   Unknown
5:20 AM 50.0 °F 41.0 °F 71% 29.89 in 6.2 mi West 5.8 mph - N/A   Unknown
5:50 AM 51.8 °F 41.0 °F 67% 29.89 in 6.2 mi WNW 6.9 mph - N/A   Partly Cloudy
6:20 AM 51.8 °F 41.0 °F 67% 29.89 in 6.2 mi WNW 8.1 mph - N/A   Unknown
6:50 AM 51.8 °F 41.0 °F 67% 29.89 in 6.2 mi WNW 6.9 mph - N/A   Unknown
7:20 AM 53.6 °F 41.0 °F 62% 29.89 in 6.2 mi West 5.8 mph - N/A   Unknown
7:50 AM 55.4 °F 41.0 °F 58% 29.89 in 6.2 mi NW 9.2 mph - N/A   Unknown
8:20 AM 55.4 °F 41.0 °F 58% 29.89 in 6.2 mi NW 8.1 mph - N/A   Unknown
8:50 AM 57.2 °F 41.0 °F 55% 29.89 in 6.2 mi NW 9.2 mph - N/A   Unknown
9:20 AM 59.0 °F 41.0 °F 51% 29.89 in 6.2 mi NW 10.4 mph - N/A   Unknown
9:50 AM 59.0 °F 41.0 °F 51% 29.89 in 6.2 mi North 9.2 mph - N/A   Partly Cloudy
10:20 AM 60.8 °F 41.0 °F 48% 29.92 in 6.2 mi North 8.1 mph - N/A   Partly Cloudy
10:50 AM 60.8 °F 39.2 °F 45% 29.92 in 6.2 mi NNW 9.2 mph - N/A   Scattered Clouds
11:20 AM 60.8 °F 39.2 °F 45% 29.92 in 6.2 mi NNW 10.4 mph - N/A   Scattered Clouds
11:50 AM 62.6 °F 41.0 °F 45% 29.92 in 6.2 mi NW 9.2 mph - N/A   Mostly Cloudy
12:20 PM 62.6 °F 39.2 °F 42% 29.92 in 6.2 mi North 9.2 mph - N/A   Overcast
12:50 PM 62.6 °F 39.2 °F 42% 29.92 in 6.2 mi North 8.1 mph - N/A   Scattered Clouds
1:20 PM 64.4 °F 39.2 °F 40% 29.92 in 6.2 mi North 8.1 mph 20.7 mph N/A   Mostly Cloudy
1:50 PM 62.6 °F 39.2 °F 42% 29.92 in 6.2 mi North 5.8 mph - N/A   Overcast
2:20 PM 62.6 °F 41.0 °F 45% 29.92 in 6.2 mi North 8.1 mph - N/A   Overcast
2:50 PM 64.4 °F 39.2 °F 40% 29.92 in 6.2 mi North 8.1 mph - N/A   Overcast
3:20 PM 62.6 °F 41.0 °F 45% 29.95 in 6.2 mi NNE 9.2 mph - N/A   Overcast
3:50 PM 62.6 °F 39.2 °F 42% 29.95 in 6.2 mi North 8.1 mph - N/A   Overcast
4:20 PM 64.4 °F 39.2 °F 40% 29.95 in 6.2 mi North 5.8 mph - N/A   Overcast
4:50 PM 64.4 °F 39.2 °F 40% 29.95 in 6.2 mi NNE 6.9 mph - N/A   Overcast
5:20 PM 64.4 °F 37.4 °F 37% 29.95 in 6.2 mi NE 8.1 mph - N/A   Overcast
5:50 PM 64.4 °F 37.4 °F 37% 29.95 in 6.2 mi NNE 8.1 mph - N/A   Overcast
6:20 PM 64.4 °F 37.4 °F 37% 29.95 in 6.2 mi NNE 4.6 mph - N/A   Overcast
6:50 PM 64.4 °F 37.4 °F 37% 29.95 in 6.2 mi ENE 5.8 mph - N/A   Mostly Cloudy
7:20 PM 64.4 °F 37.4 °F 37% 29.95 in 6.2 mi ENE 8.1 mph - N/A   Mostly Cloudy
7:50 PM 64.4 °F 39.2 °F 40% 29.95 in 6.2 mi ENE 5.8 mph - N/A   Overcast
8:20 PM 64.4 °F 37.4 °F 37% 29.98 in 6.2 mi ENE 8.1 mph - N/A   Overcast
8:50 PM 62.6 °F 39.2 °F 42% 29.98 in 6.2 mi ENE 5.8 mph - N/A   Overcast
9:20 PM 60.8 °F 39.2 °F 45% 29.98 in 6.2 mi ENE 5.8 mph - N/A   Overcast
9:50 PM 60.8 °F 39.2 °F 45% 29.98 in 6.2 mi NE 6.9 mph - N/A   Mostly Cloudy
10:20 PM 59.0 °F 39.2 °F 48% 30.01 in 6.2 mi NE 9.2 mph - N/A   Overcast
10:50 PM 57.2 °F 37.4 °F 48% 30.01 in 6.2 mi NE 9.2 mph - N/A   Overcast
11:20 PM 57.2 °F 37.4 °F 48% 30.04 in 6.2 mi NE 10.4 mph - N/A   Mostly Cloudy
11:50 PM 55.4 °F 35.6 °F 47% 30.04 in 6.2 mi NE 6.9 mph - N/A   Partly Cloudy